METEOR 2-11 DEB, 40705

Orbit data source: Space-Track

METEOR 2-11 DEB, 40705 is space debris in LEO originally from a launch on Thu, 05 Jul 1984 UTC launched from the Plesetsk Missile And Space Complex (PKMTR). Debris objects in space refer to the collection of defunct objects orbiting the Earth. Examples of debris include non-operational satellites, rocket bodies, and fragments generated from explosions, collisions, or faulty payload assembly.

Loading next visibility...
Identifier
40705, 1984-072G
Orbit
LEO
Country
Flag of CISCIS
Related business
Manufacturer
Unknown
Mission
Spacecraft
Bus & Motor
Unknown
Mass
Unknown
Launch date (UTC)
1984-07-05 (41 years ago)
Launch vehicle
Unknown
Launch site
Plesetsk Missile And Space Complex (PKMTR)
Object type
Payload
Rocket body
Debris
Shape & HBR
Unknown shape, 0.1 m
Radar Cross Section
Small (<0.1 m²)

Expand to show TLE details & history
Last TLE update: 1 week ago

TLE from 1 week ago
0 METEOR 2-11 DEB
1 40705U 84072G   25302.97101508  .00003144  00000-0  22352-2 0  9998
2 40705  82.5223 194.8763 0032172 345.3549  14.6683 13.97017598555188
Epoch: 2025-10-29T23:18Z
TLE epoch observation values (Epoch: 2025-10-29T23:18:15.702Z)
Latitude
-0.00002°
Longitude
166.77437°
Altitude
884.396 km
Speed
7.422 km/s
True Right ascension
12h 59m 30s
True Declination
0° 00' 00"
Sunlit
Object was in daylight at epoch
Visualization orbit readout
Latitude
Unknown
Longitude
Unknown
Altitude
Unknown
Speed
Unknown
Apparent Right ascension
Unknown
Apparent Declination
Unknown
Sunlit
N/A
Visualization observer readout
Local Sidereal Time
09:42:09
Azimuth
Unknown
Elevation
Unknown
Doppler factor
Unknown
Orbital elements
Apogee altitude
924.695 km
Perigee altitude
877.857 km
Semi-major axis
7,279.413 km
Eccentricity
0.00322
Inclination
82.5223°
RAAN
194.8763°
Arg. of periapsis
345.3549°
True anomaly
14.76202°
Mean anomaly
14.6683°
Eccentric anomaly
14.71512°
Mean motion
3.49461 °/min
Orbital period
103.02 mins
BSTAR
0.0022352
Loading maneuver chart data...
Computing Atmospheric mass density...
Loading historical data...
Loading historical data...
Loading historical data...
Loading historical data...
Loading historical data...
Loading historical data...
Loading historical data...

Documentation

Showing up to 5 results
|